Newark, NJ

10:27 PM EST on November 13, 2019 (GMT -0500)
Newark International

Weather History for KEWR - October, 2019

Change the Weather History Date:

Thursday, October 17, 2019

  Actual Average Record
Temperature  
Mean Temperature 56 °F 56 °F  
Max Temperature 60 °F 65 °F 90 °F (1938)
Min Temperature 51 °F 47 °F 29 °F (1937)
Degree Days  
Heating Degree Days 10 9  
Month to date heating degree days 71 117  
Since 1 July heating degree days 78 162  
Cooling Degree Days 0 0  
Month to date cooling degree days 33 14  
Year to date cooling degree days 1397 1188  
Growing Degree Days 6 (Base 50)    
Moisture  
Dew Point 40 °F    
Average Humidity 58    
Maximum Humidity 77    
Minimum Humidity 47    
Precipitation  
Precipitation 0.00 in 0.11 in 2.08 in (1936)
Month to date precipitation 3.78 2.00  
Year to date precipitation 47.10 37.19  
Snow  
Snow 0.00 in 0.00 in 0.00 in (2001)
Month to date snowfall 0.0 0.0  
Since 1 July snowfall 0.0 0.0  
Snow Depth 0.00 in    
Sea Level Pressure  
Sea Level Pressure 29.39 in    
Wind  
Wind Speed 20 mph ()    
Max Wind Speed 38 mph    
Max Gust Speed 52 mph    
Visibility 10.0 miles    
Events      
T = Trace of Precipitation, MM = Missing Value Source: Averaged Metar Reports

Daily Weather History Graph

Daily Weather History Graph

Search for Another Location

Airport or City:

Astronomy

Oct. 17, 2019 Rise Set
Actual Time 7:09 AM EDT 6:13 PM EDT
Civil Twilight 6:42 AM EDT 6:41 PM EDT
Nautical Twilight 6:10 AM EDT 7:13 PM EDT
Astronomical Twilight 5:38 AM EDT 7:44 PM EDT
Moon 8:42 PM EDT (10/17) 10:39 AM EDT (10/17)
Length of Visible Light 11h 59m
Length of Day
11h 04m
Waning Gibbous, 87% of the Moon is Illuminated
Oct 17
Waning Gibbous
Oct 21
Last Quarter
Oct 27
New
Nov 4
First Quarter
Nov 12
Full

Hourly Weather History & Observations

Time (EDT) Temp. Dew Point Humidity Pressure Visibility Wind Dir Wind Speed Gust Speed Precip Events Conditions
12:51 AM 53.1 °F 45.0 °F 74% 29.26 in 10.0 mi WNW 21.9 mph 33.4 mph 0.00 in   Overcast
1:51 AM 52.0 °F 45.0 °F 77% 29.28 in 10.0 mi WNW 21.9 mph 32.2 mph N/A   Overcast
2:51 AM 53.1 °F 41.0 °F 64% 29.28 in 10.0 mi West 19.6 mph 35.7 mph N/A   Scattered Clouds
3:51 AM 52.0 °F 39.9 °F 63% 29.29 in 10.0 mi West 19.6 mph 25.3 mph N/A   Partly Cloudy
4:51 AM 52.0 °F 41.0 °F 66% 29.29 in 10.0 mi West 21.9 mph 27.6 mph N/A   Mostly Cloudy
5:51 AM 52.0 °F 42.1 °F 69% 29.29 in 10.0 mi WSW 19.6 mph 27.6 mph N/A   Overcast
6:51 AM 52.0 °F 39.9 °F 63% 29.31 in 10.0 mi WSW 26.5 mph 34.5 mph N/A   Mostly Cloudy
7:51 AM 53.1 °F 39.0 °F 59% 29.32 in 10.0 mi WSW 19.6 mph 27.6 mph N/A   Mostly Cloudy
8:51 AM 53.1 °F 39.0 °F 59% 29.33 in 10.0 mi WSW 21.9 mph 36.8 mph N/A   Mostly Cloudy
9:51 AM 55.0 °F 39.0 °F 55% 29.33 in 10.0 mi West 23.0 mph 31.1 mph N/A   Mostly Cloudy
10:51 AM 55.9 °F 39.0 °F 53% 29.32 in 10.0 mi WSW 24.2 mph 44.9 mph N/A   Mostly Cloudy
11:51 AM 55.9 °F 39.0 °F 53% 29.34 in 10.0 mi West 24.2 mph 38.0 mph N/A   Mostly Cloudy
12:51 PM 57.9 °F 37.9 °F 47% 29.32 in 10.0 mi West 38.0 mph 50.6 mph N/A   Overcast
1:51 PM 57.9 °F 37.9 °F 47% 29.35 in 10.0 mi West 31.1 mph 42.6 mph N/A   Overcast
2:51 PM 57.0 °F 39.0 °F 51% 29.39 in 10.0 mi West 17.3 mph 38.0 mph N/A   Overcast
3:51 PM 57.0 °F 39.9 °F 53% 29.40 in 10.0 mi West 26.5 mph 48.3 mph N/A   Mostly Cloudy
4:51 PM 57.9 °F 39.0 °F 49% 29.43 in 10.0 mi West 31.1 mph 36.8 mph N/A   Mostly Cloudy
5:51 PM 57.0 °F 39.0 °F 51% 29.45 in 10.0 mi West 23.0 mph 31.1 mph N/A   Mostly Cloudy
6:51 PM 57.0 °F 39.0 °F 51% 29.49 in 10.0 mi West 17.3 mph 28.8 mph N/A   Mostly Cloudy
7:51 PM 55.9 °F 39.0 °F 53% 29.53 in 10.0 mi West 24.2 mph 32.2 mph N/A   Mostly Cloudy
8:51 PM 55.0 °F 39.0 °F 55% 29.56 in 10.0 mi West 25.3 mph 31.1 mph N/A   Mostly Cloudy
9:51 PM 55.0 °F 39.9 °F 57% 29.59 in 10.0 mi West 17.3 mph 25.3 mph N/A   Mostly Cloudy
10:51 PM 55.0 °F 39.9 °F 57% 29.63 in 10.0 mi West 17.3 mph 26.5 mph N/A   Mostly Cloudy
11:51 PM 54.0 °F 39.0 °F 57% 29.65 in 10.0 mi WNW 16.1 mph 25.3 mph N/A   Mostly Cloudy